DW4421 Weather Reports


Display with metric or nautical units.
time (UTC)temp
F
wind
direction
speed
MPH
gust
MPH
rain 1hr
in
rain 24hr
in
rain mn
in
humidity
%
barometer
mb
20260504202127 83 292 1.0 5.0 0.00 1.00 0.00 14 1016.6
20260504201630 83 338 1.0 6.0 0.00 1.00 0.00 14 1016.6
20260504201126 83 22 2.0 6.0 0.00 1.00 0.00 14 1016.6
20260504200626 84 338 2.0 6.0 0.00 1.00 0.00 13 1016.6
20260504200126 84 112 2.0 6.0 0.00 1.00 0.00 14 1016.6
20260504195626 83 338 4.0 6.0 0.00 1.00 0.00 14 1016.6
20260504195126 83 338 2.0 6.0 0.00 1.00 0.00 14 1016.6
20260504194625 84 315 2.0 5.0 0.00 1.00 0.00 11 1016.6
20260504194126 83 158 1.0 4.0 0.00 1.00 0.00 14 1016.6
20260504194057 83 202 1.0 4.0 0.00 1.00 0.00 14 1016.6
20260504193055 82 338 1.0 6.0 0.00 1.00 0.00 14 1016.6
20260504192826 83 180 3.0 6.0 0.00 1.00 0.00 14 1016.6
20260504192058 83 158 3.0 4.0 0.00 1.00 0.00 14 1016.6
20260504191558 83 338 2.0 4.0 0.00 1.00 0.00 14 1016.6
20260504191056 83 338 2.0 5.0 0.00 1.00 0.00 14 1015.6
20260504190555 82 270 2.0 5.0 0.00 1.00 0.00 14 1015.6
20260504190055 82 292 2.0 6.0 0.00 1.00 0.00 14 1015.6
20260504185559 83 112 3.0 6.0 0.00 1.00 0.00 14 1016.6
20260504185038 83 338 3.0 4.0 0.00 1.00 0.00 14 1016.6
20260504184536 83 225 2.0 3.0 0.00 1.00 0.00 16 1016.6
20260504184038 83 0 2.0 5.0 0.00 1.00 0.00 16 1016.6
20260504183539 82 338 2.0 5.0 0.00 1.00 0.00 14 1016.6
20260504183310 83 90 3.0 4.0 0.00 1.00 0.00 16 1016.6
20260504182539 83 45 2.0 5.0 0.00 1.00 0.00 19 1016.6
20260504182031 82 22 4.0 6.0 0.00 1.00 0.00 14 1016.6
20260504181519 83 68 4.0 6.0 0.00 1.00 0.00 16 1016.6
20260504181152 83 338 2.0 3.0 0.00 1.00 0.00 19 1017.7
20260504180418 82 22 2.0 5.0 0.00 1.00 0.00 20 1017.7
20260504175916 81 45 2.0 5.0 0.00 1.00 0.00 20 1017.7
20260504175415 80 158 3.0 4.0 0.00 1.00 0.00 20 1017.7
20260504174916 80 292 1.0 3.0 0.00 1.00 0.00 20 1017.7
20260504174415 80 202 1.0 5.0 0.00 1.00 0.00 21 1017.7
20260504174146 79 158 4.0 5.0 0.00 1.00 0.00 17 1017.7
20260504173416 79 180 2.0 6.0 0.00 1.00 0.00 20 1017.7
20260504172916 79 202 2.0 6.0 1.00 1.00 0.00 21 1017.7
20260504172417 79 338 2.0 5.0 1.00 1.00 0.00 20 1017.7
20260504171916 78 180 2.0 6.0 1.00 1.00 0.00 22 1017.7
20260504171416 79 135 3.0 6.0 1.00 1.00 0.00 21 1017.7
20260504170916 78 202 1.0 5.0 1.00 1.00 0.00 21 1017.7
20260504170414 79 0 3.0 5.0 1.00 1.00 0.00 22 1017.7
20260504150856 71 338 3.0 5.0 0.00 0.00 0.00 32 1018.7
20260504150628 71 158 4.0 5.0 0.00 0.00 0.00 34 1018.7
20260504141255 67 158 2.0 3.0 0.00 0.00 0.00 48 1017.7
20260504140756 66 180 2.0 3.0 0.00 0.00 0.00 52 1018.7
20260504140256 66 202 1.0 2.0 0.00 0.00 0.00 55 1018.7
20260504130254 52 22 0.0 1.0 0.00 0.00 0.00 79 1018.7
20260504120219 47 22 0.0 0.0 0.00 0.00 0.00 76 1017.7
20260504110645 45 45 0.0 0.0 0.00 0.00 0.00 74 1018.7
20260504110146 45 45 0.0 0.0 0.00 0.00 0.00 74 1018.7
20260504100148 46 158 0.0 0.0 0.00 0.00 0.00 72 1018.7
20260504081808 47 158 0.0 0.0 0.00 0.00 0.00 69 1018.7
20260504081501 47 158 0.0 0.0 0.00 0.00 0.00 68 1018.7
20260504081225 47 158 0.0 0.0 0.00 0.00 0.00 69 1018.7
20260504080225 47 158 0.0 0.0 0.00 0.00 0.00 68 1018.7
20260504070105 48 180 0.0 0.0 0.00 0.00 0.00 66 1017.7
20260504050737 50 202 0.0 2.0 0.00 0.00 0.00 57 1019.7
20260504050005 51 202 0.0 0.0 0.00 0.00 0.00 57 1019.7
20260504045504 51 202 0.0 0.0 0.00 0.00 0.00 56 1018.7
20260504045006 51 202 0.0 0.0 0.00 0.00 0.00 56 1018.7
20260504044736 51 202 0.0 1.0 0.00 0.00 0.00 56 1018.7
20260504044005 51 202 0.0 1.0 0.00 0.00 0.00 55 1019.7
20260504043508 51 202 0.0 1.0 0.00 0.00 0.00 55 1019.7
20260504043004 51 202 0.0 0.0 0.00 0.00 0.00 55 1019.7
20260504042425 51 202 0.0 0.0 0.00 0.00 0.00 54 1019.7
20260504041926 51 202 0.0 0.0 0.00 0.00 0.00 54 1019.7
20260504041428 52 202 0.0 0.0 0.00 0.00 0.00 54 1019.7
20260504040926 52 202 0.0 0.0 0.00 0.00 0.00 53 1019.7
20260504040428 52 202 0.0 0.0 0.00 0.00 0.00 52 1019.7
20260504040046 52 202 0.0 0.0 0.00 0.00 0.00 52 1019.7
20260504035314 52 202 0.0 0.0 0.00 0.00 0.00 52 1020.7
20260504034818 52 202 0.0 0.0 0.00 0.00 0.00 52 1020.7
20260504034311 53 202 0.0 0.0 0.00 0.00 0.00 51 1020.7
20260504034041 53 202 0.0 0.0 0.00 0.00 0.00 50 1019.7
20260504033307 53 202 0.0 0.0 0.00 0.00 0.00 50 1019.7
20260504032808 53 202 0.0 0.0 0.00 0.00 0.00 50 1019.7
20260504032305 53 202 0.0 0.0 0.00 0.00 0.00 49 1019.7
20260504032038 53 202 0.0 0.0 0.00 0.00 0.00 49 1019.7
20260504031306 53 202 0.0 0.0 0.00 0.00 0.00 49 1019.7
20260504030807 54 202 0.0 0.0 0.00 0.00 0.00 48 1019.7
20260504030506 54 202 0.0 0.0 0.00 0.00 0.00 47 1019.7
20260504025735 54 202 0.0 0.0 0.00 0.00 0.00 47 1019.7
20260504025506 54 202 0.0 0.0 0.00 0.00 0.00 47 1019.7
20260504024735 54 202 0.0 0.0 0.00 0.00 0.00 47 1019.7
20260504024230 55 202 0.0 0.0 0.00 0.00 0.00 46 1019.7
20260504024002 55 202 0.0 0.0 0.00 0.00 0.00 46 1019.7
20260504023204 55 202 0.0 0.0 0.00 0.00 0.00 46 1019.7
20260504022705 55 202 0.0 0.0 0.00 0.00 0.00 46 1019.7
20260504022204 55 202 0.0 0.0 0.00 0.00 0.00 45 1019.7
20260504021705 56 202 0.0 0.0 0.00 0.00 0.00 45 1019.7
20260504021439 56 202 0.0 0.0 0.00 0.00 0.00 45 1018.7
20260504020704 56 202 0.0 0.0 0.00 0.00 0.00 43 1018.7
20260504020205 57 202 0.0 0.0 0.00 0.00 0.00 44 1018.7
20260504015935 57 202 0.0 0.0 0.00 0.00 0.00 43 1017.7
20260504015206 57 202 0.0 0.0 0.00 0.00 0.00 42 1017.7
20260504014705 57 202 0.0 0.0 0.00 0.00 0.00 41 1017.7
20260504014205 58 202 0.0 0.0 0.00 0.00 0.00 41 1018.7
20260504013705 58 202 0.0 0.0 0.00 0.00 0.00 40 1018.7
20260504013204 58 202 0.0 0.0 0.00 0.00 0.00 40 1018.7
20260504012705 59 202 0.0 0.0 0.00 0.00 0.00 39 1019.7
20260504012435 59 202 0.0 0.0 0.00 0.00 0.00 39 1019.7
20260504011706 60 202 0.0 0.0 0.00 0.00 0.00 38 1019.7
20260504011206 60 202 0.0 0.0 0.00 0.00 0.00 37 1018.7
20260504010706 60 202 0.0 0.0 0.00 0.00 0.00 37 1018.7
20260504010205 61 202 0.0 0.0 0.00 0.00 0.00 37 1018.7
20260504005704 61 202 0.0 0.0 0.00 0.00 0.00 36 1017.7
20260504005440 62 202 0.0 0.0 0.00 0.00 0.00 36 1017.7
20260504004707 62 202 0.0 0.0 0.00 0.00 0.00 35 1017.7
20260504004441 63 202 0.0 0.0 0.00 0.00 0.00 35 1017.7
20260504003630 63 202 0.0 0.0 0.00 0.00 0.00 34 1017.7
20260504003035 64 202 0.0 0.0 0.00 0.00 0.00 34 1017.7
20260504002534 64 202 0.0 0.0 0.00 0.00 0.00 33 1017.7
20260504002034 65 202 0.0 0.0 0.00 0.00 0.00 32 1017.7
20260504001511 66 202 0.0 0.0 0.00 0.00 0.00 31 1017.7
20260504001504 65 202 0.0 1.0 0.00 0.00 0.00 32 1017.7
20260504000504 66 202 0.0 0.0 0.00 0.00 0.00 29 1017.7
20260504000005 67 202 0.0 0.0 0.00 0.00 0.00 28 1017.7
20260503235736 67 202 0.0 0.0 0.00 0.00 0.00 27 1017.7
20260503235007 67 202 0.0 0.0 0.00 0.00 0.00 25 1017.7
20260503234715 68 202 0.0 0.0 0.00 0.00 0.00 24 1017.7
20260503233946 68 202 0.0 0.0 0.00 0.00 0.00 23 1017.7
20260503233446 68 202 0.0 2.0 0.00 0.00 0.00 23 1017.7
20260503232945 68 202 0.0 3.0 0.00 0.00 0.00 23 1017.7
20260503232658 69 202 2.0 3.0 0.00 0.00 0.00 23 1017.7
20260503231925 69 202 0.0 2.0 0.00 0.00 0.00 23 1017.7
20260503231425 69 202 0.0 2.0 0.00 0.00 0.00 23 1017.7
20260503230928 70 202 0.0 2.0 0.00 0.00 0.00 22 1017.7
20260503230423 70 270 2.0 3.0 0.00 0.00 0.00 22 1017.7
20260503230410 70 202 2.0 3.0 0.00 0.00 0.00 22 1017.7
20260503225407 71 202 0.0 2.0 0.00 0.00 0.00 19 1018.7
20260503225138 71 202 1.0 3.0 0.00 0.00 0.00 19 1018.7
20260503224639 71 202 2.0 3.0 0.00 0.00 0.00 19 1018.7
20260503223908 71 180 1.0 3.0 0.00 0.00 0.00 17 1018.7
20260503223637 72 180 0.0 3.0 0.00 0.00 0.00 16 1018.7
20260503222908 72 180 1.0 3.0 0.00 0.00 0.00 16 1018.7
20260503222407 72 202 2.0 4.0 0.00 0.00 0.00 16 1018.7
20260503221908 73 315 2.0 4.0 0.00 0.00 0.00 16 1018.7
20260503221408 73 225 1.0 4.0 0.00 0.00 0.00 16 1018.7
20260503220906 74 292 3.0 4.0 0.00 0.00 0.00 16 1018.7
20260503220630 75 22 1.0 6.0 0.00 0.00 0.00 16 1018.7
20260503220507 74 292 1.0 4.0 0.00 0.00 0.00 16 1018.7
20260503215629 76 338 3.0 6.0 0.00 0.00 0.00 15 1018.7
20260503214755 76 202 2.0 3.0 0.00 0.00 0.00 15 1018.7
20260503214255 76 270 2.0 3.0 0.00 0.00 0.00 15 1018.7
20260503214029 77 338 1.0 3.0 0.00 0.00 0.00 15 1018.7
20260503213254 77 0 2.0 4.0 0.00 0.00 0.00 15 1018.7
20260503213028 77 338 1.0 5.0 0.00 0.00 0.00 15 1018.7
20260503212235 77 338 3.0 5.0 0.00 0.00 0.00 15 1018.7
20260503211735 77 0 2.0 4.0 0.00 0.00 0.00 15 1018.7
20260503211506 78 202 3.0 4.0 0.00 0.00 0.00 15 1018.7
20260503211006 78 270 2.0 6.0 0.00 0.00 0.00 15 1018.7
20260503210856 78 248 1.0 6.0 0.00 0.00 0.00 15 1018.7
20260503205735 78 248 2.0 5.0 0.00 0.00 0.00 15 1018.7
20260503205234 78 315 2.0 5.0 0.00 0.00 0.00 15 1018.7
20260503204735 79 112 2.0 4.0 0.00 0.00 0.00 15 1018.7
20260503204235 78 338 2.0 4.0 0.00 0.00 0.00 15 1018.7
20260503204004 78 292 3.0 4.0 0.00 0.00 0.00 15 1018.7
20260503203236 77 338 2.0 5.0 0.00 0.00 0.00 15 1018.7
20260503202734 77 0 2.0 5.0 0.00 0.00 0.00 15 1017.7